Location: Belfast
(54.5830°N, 5.9330°W)
Time: 16:01:37
(UTC+01:00)

ISS - Visible Passes

Search period start: 13 July 2025 00:00
Search period end: 23 July 2025 00:00
Orbit: 413 x 417 km, 51.6° (Epoch: 13 July)

Date Brightness Start Highest point End Pass type
(mag) Time Alt. Az. Time Alt. Az. Time Alt. Az.
13 Jul -3.4 00:57:50 10° W 01:01:02 42° SSW 01:03:20 16° SE visible
13 Jul -1.8 02:34:56 10° WSW 02:36:07 15° SW 02:36:07 15° SW visible
14 Jul -3.5 00:09:00 10° W 00:12:14 47° S 00:15:19 11° ESE visible
14 Jul -2.4 01:45:49 10° W 01:48:08 22° SW 01:48:08 22° SW visible
14 Jul -3.6 23:20:10 10° W 23:23:25 51° S 23:26:42 10° ESE visible
15 Jul -2.9 00:56:49 10° W 00:59:47 29° SSW 01:00:23 27° S visible
16 Jul -3.1 00:07:53 10° W 00:11:00 36° SSW 00:12:45 21° SE visible
16 Jul -1.3 01:45:23 10° WSW 01:45:35 11° WSW 01:45:35 11° WSW visible
16 Jul -3.3 23:18:59 10° W 23:22:11 43° SSW 23:25:11 11° ESE visible
17 Jul -2.0 00:55:59 10° WSW 00:58:01 18° SW 00:58:01 18° SW visible
18 Jul -2.4 00:06:50 10° W 00:09:36 24° SSW 00:10:30 21° S visible
18 Jul -2.8 23:17:48 10° W 23:20:48 31° SSW 23:23:02 15° SE visible
20 Jul -1.7 00:06:08 10° WSW 00:08:01 14° SW 00:08:26 14° SSW visible
20 Jul -2.0 23:16:45 10° WSW 23:19:14 19° SSW 23:21:01 13° S visible
21 Jul -2.3 22:27:34 10° W 22:30:24 25° SSW 22:33:13 10° SSE visible
22 Jul -1.3 23:16:36 10° SW 23:17:28 11° SW 23:18:21 10° SSW visible
